Regional Weather Roundup
Issued by NWS

Home | Current Version | Previous Version | Graphics & Text | Print | Product List | Glossary On
Versions: 1 2 3 4 5 6 7 8 9 10 11 12 13 14 15 16 17 18 19 20 21 22 23 24 25 26 27 28 29 30 31 32 33 34 35 36 37 38 39 40 41 42 43 44 45 46 47 48 49 50
000
ASUS43 KTOP 240508
RWRKS

WEATHER ROUNDUP FOR KANSAS
NATIONAL WEATHER SERVICE GOODLAND KS
1200 AM CDT THU APR 24 2014

NOTE:  "FAIR" INDICATES FEW OR NO CLOUDS BELOW 12,000 FEET WITH NO
SIGNIFICANT WEATHER AND/OR OBSTRUCTIONS TO VISIBILITY.

KSZ001>006-013>018-027>032-041>047-240600-
NORTHWEST KANSAS

CITY           SKY/WX    TMP DP  RH WIND       PRES   REMARKS
GOODLAND       CLOUDY    51  31  46 N32G44    29.81R
HAYS           PTCLDY    70  52  52 W23G35    29.58R
HILL CITY      TSTM      57  51  80 N23G30    29.66R
RUSSELL        CLEAR     71  51  49 S28G38    29.47R
$$

KSZ061>065-074>080-084>089-240600-
SOUTHWEST KANSAS

CITY           SKY/WX    TMP DP  RH WIND       PRES   REMARKS
DODGE CITY     CLEAR     64  53  67 S25G32    29.57R
ELKHART          N/A     66  26  22 N16         N/A
GARDEN CITY    MOCLDY    66  53  63 W20G35    29.67R
GREAT BEND     CLEAR     68  48  49 S28G33    29.52F
LIBERAL        MOCLDY    64  52  63 E21G33    29.60R
PRATT          CLEAR     66  46  48 S24G32    29.59S
$$

KSZ066>073-081>083-090>101-240600-
SOUTHEAST KANSAS

CITY           SKY/WX    TMP DP  RH WIND       PRES   REMARKS
CHANUTE        CLOUDY    71  53  52 S17G25    29.71R
COFFEYVILLE    CLOUDY    71  56  58 S15       29.73F
HUTCHINSON     PTCLDY    70  51  51 S25G33    29.58F
MEDICINE LODGE   N/A     67  54  63 S15G28    29.59R
NEWTON         CLOUDY    66  52  59 S12       29.63F THUNDER
PARSONS        CLOUDY    72  54  53 S17G28    29.72R
WICHITA INTL   CLOUDY    70  51  51 S24G37    29.59R
WICHITA JABRA  CLOUDY    72  51  47 S30G41    29.57R
WICHITA MCCONL CLOUDY    71  52  51 S28G40    29.59R
WINFIELD       CLOUDY    68  60  75 S25G36    29.63F
$$

KSZ007>012-019>026-033>040-048>060-102>105-240600-
NORTHEAST KANSAS

CITY           SKY/WX    TMP DP  RH WIND       PRES   REMARKS
CONCORDIA      MOCLDY    69  50  50 NW14G22   29.55R
EMPORIA        CLOUDY    74  54  49 S21G36    29.63S
LAWRENCE       CLOUDY    68  47  46 SE10      29.66F
MANHATTAN      CLOUDY    74  53  48 S22G31    29.48F
OLATHE IND     CLOUDY    67  43  41 SE17      29.69F
OLATHE EXE     CLOUDY    67  42  40 S18G30    29.68F
SALINA         CLOUDY    73  52  47 S23G33    29.50R
TOPEKA BILLARD CLOUDY    74  51  44 SE16G26   29.63F
TOPEKA FORBES  CLOUDY    72  51  47 S22G30    29.62F
$$



USA.gov is the U.S. government's official web portal to all federal, state and local government web resources and services.